Weather History for KCKN - November, 2012

Change the Weather History Date:

Saturday, November 3, 2012

  Actual Average Record
Temperature  
Mean Temperature 32 °F -  
Max Temperature 33 °F 39 °F 66 °F (2008)
Min Temperature 30 °F 25 °F 10 °F (2003)
Degree Days  
Heating Degree Days 34    
Moisture  
Dew Point 31 °F    
Average Humidity 95    
Maximum Humidity 100    
Minimum Humidity 87    
Precipitation  
Precipitation 0.07 in - - ()
Sea Level Pressure  
Sea Level Pressure 30.21 in    
Wind  
Wind Speed 2 mph (ENE)    
Max Wind Speed 7 mph    
Max Gust Speed -    
Visibility 7 miles    
Events Snow    
Averages and records for this station are not official NWS values.
T = Trace of Precipitation, MM = Missing Value Source: NWS Daily Summary

Daily Weather History Graph

Daily Weather History Graph

Search for Another Location

Airport or City:

Trip Planner

Search our weather history database for the weather conditions in past years. The results will help you decide how hot, cold, wet, or windy it might be!

Date:

Astronomy

Nov. 03, 2012 Rise Set
Actual Time 8:14 AM CDT 6:04 PM CDT
Civil Twilight 7:42 AM CDT 6:37 PM CDT
Nautical Twilight 7:05 AM CDT 7:13 PM CDT
Astronomical Twilight 6:29 AM CDT 7:49 PM CDT
Moon 9:39 PM CDT (11/3) 12:27 PM CDT (11/3)
Length of Visible Light 10h 54m
Length of Day
9h 49m
Waning Gibbous, 80% of the Moon is Illuminated
Nov 3
Waning Gibbous
Nov 6
Last Quarter
Nov 13
New
Nov 20
First Quarter
Nov 28
Full

Hourly Weather History & Observations

Time (CDT) Temp. Windchill Dew Point Humidity Pressure Visibility Wind Dir Wind Speed Gust Speed Precip Events Conditions
12:15 AM 30.2 °F - 30.2 °F 100% 30.19 in 10.0 mi Calm Calm - N/A Snow Light Snow
12:34 AM 30.2 °F - 30.2 °F 100% 30.19 in 7.0 mi Calm Calm - N/A Snow Light Snow
12:54 AM 30.2 °F - 30.2 °F 100% 30.19 in 7.0 mi Calm Calm - N/A Snow Light Snow
1:15 AM 30.2 °F - 28.4 °F 93% 30.19 in 10.0 mi Calm Calm - N/A   Scattered Clouds
1:34 AM 30.2 °F - 30.2 °F 100% 30.19 in 10.0 mi Calm Calm - N/A   Clear
2:15 AM 30.2 °F - 28.4 °F 93% 30.19 in 10.0 mi Calm Calm - N/A Snow Light Snow
2:34 AM 30.2 °F - 30.2 °F 100% 30.19 in 4.0 mi Calm Calm - N/A Snow Light Snow
2:54 AM 30.2 °F - 30.2 °F 100% 30.19 in 3.0 mi Calm Calm - N/A   Mostly Cloudy
3:15 AM 30.2 °F - 30.2 °F 100% 30.19 in 3.0 mi Calm Calm - N/A Snow Light Snow
3:34 AM 30.2 °F - 30.2 °F 100% 30.19 in 2.0 mi Calm Calm - N/A Snow Light Snow
3:54 AM 30.2 °F - 30.2 °F 100% 30.19 in 2.0 mi Calm Calm - 0.01 in Snow Light Snow
4:15 AM 30.2 °F - 30.2 °F 100% 30.18 in 2.0 mi Calm Calm - 0.01 in Snow Light Snow
4:34 AM 30.2 °F - 30.2 °F 100% 30.18 in 2.0 mi Calm Calm - 0.02 in Snow Light Snow
4:54 AM 30.2 °F - 30.2 °F 100% 30.18 in 2.0 mi Calm Calm - 0.01 in Snow Light Snow
5:15 AM 30.2 °F 26.7 °F 30.2 °F 100% 30.18 in 2.0 mi East 3.5 mph - 0.01 in Snow Light Snow
5:34 AM 30.2 °F 26.7 °F 30.2 °F 100% 30.18 in 2.5 mi East 3.5 mph - 0.01 in Snow Light Snow
5:54 AM 30.2 °F - 30.2 °F 100% 30.18 in 2.5 mi Calm Calm - N/A Snow Light Snow
6:14 AM 30.2 °F - 30.2 °F 100% 30.18 in 3.0 mi Calm Calm - N/A Snow Light Snow
6:34 AM 30.2 °F 26.7 °F 30.2 °F 100% 30.19 in 4.0 mi East 3.5 mph - N/A Snow Light Snow
6:55 AM 30.2 °F 26.7 °F 30.2 °F 100% 30.19 in 2.5 mi East 3.5 mph - 0.01 in Snow Light Snow
7:14 AM 30.2 °F 26.7 °F 30.2 °F 100% 30.19 in 2.5 mi East 3.5 mph - 0.01 in Snow Light Snow
7:34 AM 30.2 °F - 30.2 °F 100% 30.19 in 2.5 mi Calm Calm - 0.01 in Snow Light Snow
7:55 AM 30.2 °F - 30.2 °F 100% 30.19 in 2.0 mi Calm Calm - N/A Snow Light Snow
8:14 AM 30.2 °F 26.7 °F 30.2 °F 100% 30.20 in 2.0 mi East 3.5 mph - 0.01 in Snow Light Snow
8:34 AM 30.2 °F 26.7 °F 30.2 °F 100% 30.20 in 1.2 mi East 3.5 mph - 0.01 in Snow Light Snow
8:55 AM 30.2 °F 26.7 °F 30.2 °F 100% 30.21 in 2.0 mi East 3.5 mph - N/A Snow Light Snow
9:14 AM 30.2 °F 26.7 °F 30.2 °F 100% 30.21 in 2.0 mi East 3.5 mph - N/A Snow Light Snow
9:34 AM 30.2 °F 26.7 °F 30.2 °F 100% 30.21 in 2.0 mi East 3.5 mph - N/A Snow Light Snow
9:55 AM 30.2 °F 26.7 °F 30.2 °F 100% 30.21 in 5.0 mi East 3.5 mph - N/A Snow Light Snow
10:14 AM 30.2 °F 26.7 °F 30.2 °F 100% 30.22 in 3.0 mi East 3.5 mph - N/A Snow Light Snow
10:34 AM 30.2 °F 24.3 °F 30.2 °F 100% 30.22 in 5.0 mi East 5.8 mph - N/A Snow Light Snow
10:55 AM 30.2 °F 24.3 °F 30.2 °F 100% 30.22 in 7.0 mi East 5.8 mph - N/A Snow Light Snow
11:14 AM 32.0 °F 27.5 °F 30.2 °F 93% 30.22 in 7.0 mi East 4.6 mph - N/A   Clear
11:34 AM 32.0 °F - 30.2 °F 93% 30.22 in 7.0 mi Calm Calm - N/A Snow Light Snow
11:55 AM 32.0 °F 27.5 °F 30.2 °F 93% 30.22 in 7.0 mi East 4.6 mph - N/A   Clear
12:14 PM 32.0 °F 26.4 °F 30.2 °F 93% 30.22 in 10.0 mi East 5.8 mph - N/A   Scattered Clouds
12:34 PM 33.8 °F 30.8 °F 30.2 °F 87% 30.22 in 7.0 mi ESE 3.5 mph - N/A   Scattered Clouds
12:55 PM 33.8 °F 29.6 °F 30.2 °F 87% 30.22 in 10.0 mi East 4.6 mph - N/A   Scattered Clouds
1:14 PM 33.8 °F 30.8 °F 30.2 °F 87% 30.22 in 10.0 mi East 3.5 mph - N/A   Mostly Cloudy
1:34 PM 33.8 °F 30.8 °F 30.2 °F 87% 30.22 in 10.0 mi ENE 3.5 mph - N/A   Scattered Clouds
1:55 PM 33.8 °F - 30.2 °F 87% 30.22 in 10.0 mi Calm Calm - N/A   Scattered Clouds
2:14 PM 33.8 °F - 30.2 °F 87% 30.22 in 10.0 mi Calm Calm - N/A   Scattered Clouds
2:34 PM 33.8 °F - 30.2 °F 87% 30.22 in 10.0 mi Calm Calm - N/A   Scattered Clouds
2:55 PM 33.8 °F - 30.2 °F 87% 30.22 in 10.0 mi Calm Calm - N/A   Clear
3:14 PM 33.8 °F - 30.2 °F 87% 30.21 in 10.0 mi Calm Calm - N/A   Clear
3:34 PM 33.8 °F - 30.2 °F 87% 30.21 in 10.0 mi Calm Calm - N/A   Scattered Clouds
3:55 PM 33.8 °F - 30.2 °F 87% 30.22 in 10.0 mi Calm Calm - N/A   Scattered Clouds
4:14 PM 33.8 °F - 32.0 °F 93% 30.22 in 10.0 mi Calm Calm - N/A   Scattered Clouds
4:34 PM 33.8 °F 29.6 °F 32.0 °F 93% 30.22 in 10.0 mi North 4.6 mph - N/A   Scattered Clouds
4:55 PM 33.8 °F 29.6 °F 32.0 °F 93% 30.22 in 10.0 mi North 4.6 mph - N/A   Scattered Clouds
5:14 PM 33.8 °F 29.6 °F 32.0 °F 93% 30.23 in 10.0 mi North 4.6 mph - N/A   Scattered Clouds
5:34 PM 33.8 °F 28.6 °F 32.0 °F 93% 30.23 in 10.0 mi North 5.8 mph - N/A   Overcast
5:55 PM 33.8 °F 28.6 °F 32.0 °F 93% 30.23 in 10.0 mi North 5.8 mph - N/A   Overcast
6:14 PM 33.8 °F 27.7 °F 32.0 °F 93% 30.23 in 10.0 mi North 6.9 mph - N/A   Overcast
6:35 PM 33.8 °F 27.7 °F 32.0 °F 93% 30.24 in 10.0 mi North 6.9 mph - N/A   Overcast
6:54 PM 33.8 °F 27.7 °F 30.2 °F 87% 30.24 in 10.0 mi North 6.9 mph - N/A   Overcast
7:14 PM 33.8 °F 27.7 °F 30.2 °F 87% 30.24 in 10.0 mi North 6.9 mph - N/A   Overcast
7:35 PM 33.8 °F 27.7 °F 30.2 °F 87% 30.25 in 10.0 mi North 6.9 mph - N/A   Overcast
8:14 PM 33.8 °F 29.6 °F 30.2 °F 87% 30.25 in 10.0 mi North 4.6 mph - N/A   Overcast
8:35 PM 33.8 °F 28.6 °F 32.0 °F 93% 30.25 in 10.0 mi North 5.8 mph - N/A   Overcast
8:54 PM 33.8 °F 28.6 °F 32.0 °F 93% 30.25 in 10.0 mi North 5.8 mph - N/A   Overcast
9:14 PM 33.8 °F - 32.0 °F 93% 30.25 in 10.0 mi Calm Calm - N/A   Overcast
9:35 PM 32.0 °F - 32.0 °F 100% 30.25 in 10.0 mi Calm Calm - N/A   Overcast
9:54 PM 32.0 °F - 32.0 °F 100% 30.25 in 10.0 mi Calm Calm - N/A   Overcast
10:14 PM 32.0 °F - 32.0 °F 100% 30.25 in 10.0 mi Calm Calm - N/A   Overcast
10:35 PM 32.0 °F - 32.0 °F 100% 30.25 in 10.0 mi Calm Calm - N/A   Overcast
10:54 PM 32.0 °F - 30.2 °F 93% 30.24 in 7.0 mi Calm Calm - N/A   Mostly Cloudy
11:15 PM 30.2 °F - 30.2 °F 100% 30.24 in 1.8 mi Calm Calm - N/A   Clear
11:35 PM 30.2 °F - 28.4 °F 93% 30.24 in 1.0 mi Calm Calm - N/A   Clear
11:54 PM 30.2 °F - 30.2 °F 100% 30.24 in 1.2 mi Calm Calm - N/A   Clear